Amarillo, TX

5:11 PM CST on December 14, 2017 (GMT -0600)
Amarillo International

Weather History for KAMA - February, 2013

Change the Weather History Date:

Sunday, February 10, 2013

  Actual Average Record
Temperature  
Mean Temperature 43 °F 39 °F  
Max Temperature 55 °F 53 °F 89 °F (2017)
Min Temperature 31 °F 25 °F -6 °F (2011)
Degree Days  
Heating Degree Days 22 26  
Month to date heating degree days 184 265  
Since 1 July heating degree days 2350 2850  
Cooling Degree Days 0 0  
Month to date cooling degree days 0 0  
Year to date cooling degree days 0 0  
Moisture  
Dew Point 12 °F    
Average Humidity 32    
Maximum Humidity 47    
Minimum Humidity 16    
Precipitation  
Precipitation 0.00 in 0.02 in 0.46 in (1898)
Month to date precipitation 0.00 0.22  
Year to date precipitation 0.76 0.94  
Snow  
Snow 0.00 in 0.10 in 3.50 in (1898)
Month to date snowfall 0.0 1.4  
Since 1 July snowfall 4.0 12.5  
Snow Depth 0.00 in    
Sea Level Pressure  
Sea Level Pressure 29.78 in    
Wind  
Wind Speed 18 mph (NW)    
Max Wind Speed 32 mph    
Max Gust Speed 45 mph    
Visibility 10 miles    
Events      
T = Trace of Precipitation, MM = Missing Value Source: NWS Daily Summary

Daily Weather History Graph

Daily Weather History Graph

Search for Another Location

Airport or City:

Trip Planner

Search our weather history database for the weather conditions in past years. The results will help you decide how hot, cold, wet, or windy it might be!

Date:

Astronomy

Feb. 10, 2013 Rise Set
Actual Time 7:37 AM CST 6:24 PM CST
Civil Twilight 7:11 AM CST 6:50 PM CST
Nautical Twilight 6:41 AM CST 7:20 PM CST
Astronomical Twilight 6:12 AM CST 7:50 PM CST
Moon 7:31 AM CST (2/10) 7:13 PM CST (2/10)
Length of Visible Light 11h 39m
Length of Day
10h 46m
New Moon, 0% of the Moon is Illuminated
Feb 10
New Moon
Feb 17
First Quarter
Feb 25
Full
Mar 4
Last Quarter
Mar 11
New

Hourly Weather History & Observations

Time (CST) Temp. Windchill Dew Point Humidity Pressure Visibility Wind Dir Wind Speed Gust Speed Precip Events Conditions
12:53 AM 43.0 °F 32.2 °F 9.0 °F 25% 29.61 in 10.0 mi WSW 32.2 mph 44.9 mph N/A   Clear
1:53 AM 41.0 °F 30.0 °F 10.0 °F 28% 29.60 in 10.0 mi WSW 28.8 mph 36.8 mph N/A   Clear
2:53 AM 41.0 °F 30.7 °F 10.9 °F 29% 29.59 in 10.0 mi WSW 25.3 mph 34.5 mph N/A   Clear
3:53 AM 39.9 °F 28.4 °F 10.9 °F 31% 29.59 in 10.0 mi West 29.9 mph 44.9 mph N/A   Clear
4:53 AM 39.0 °F 28.0 °F 12.0 °F 33% 29.60 in 10.0 mi West 25.3 mph 41.4 mph N/A   Clear
5:53 AM 39.0 °F 27.8 °F 14.0 °F 36% 29.61 in 10.0 mi West 26.5 mph 38.0 mph N/A   Clear
6:53 AM 37.9 °F 27.1 °F 14.0 °F 38% 29.66 in 10.0 mi West 23.0 mph - N/A   Clear
7:53 AM 37.9 °F 27.3 °F 14.0 °F 38% 29.70 in 10.0 mi West 21.9 mph - N/A   Clear
8:53 AM 42.1 °F 33.1 °F 14.0 °F 32% 29.73 in 10.0 mi West 20.7 mph 28.8 mph N/A   Clear
9:53 AM 46.0 °F 37.6 °F 12.9 °F 26% 29.75 in 10.0 mi West 24.2 mph 31.1 mph N/A   Clear
10:53 AM 50.0 °F - 10.9 °F 21% 29.76 in 10.0 mi WNW 21.9 mph 33.4 mph N/A   Clear
11:53 AM 52.0 °F - 8.1 °F 17% 29.78 in 10.0 mi NW 25.3 mph 34.5 mph N/A   Clear
12:53 PM 54.0 °F - 8.1 °F 16% 29.77 in 10.0 mi WNW 18.4 mph 27.6 mph N/A   Clear
1:34 PM 53.6 °F - 10.4 °F 18% 29.81 in 10.0 mi North 13.8 mph 23.0 mph N/A   Clear
1:53 PM 54.0 °F - 10.9 °F 18% 29.77 in 10.0 mi North 16.1 mph 23.0 mph N/A   Clear
2:53 PM 54.0 °F - 12.0 °F 19% 29.78 in 10.0 mi North 8.1 mph 16.1 mph N/A   Clear
3:53 PM 54.0 °F - 12.9 °F 20% 29.80 in 10.0 mi North 11.5 mph - N/A   Clear
4:53 PM 52.0 °F - 12.0 °F 20% 29.83 in 10.0 mi NNE 10.4 mph - N/A   Scattered Clouds
5:53 PM 48.9 °F - 12.9 °F 24% 29.86 in 10.0 mi NE 12.7 mph - N/A   Clear
6:53 PM 37.9 °F 30.9 °F 12.0 °F 35% 29.92 in 10.0 mi NE 10.4 mph - N/A   Clear
7:53 PM 34.0 °F 26.0 °F 12.0 °F 40% 29.96 in 10.0 mi NE 10.4 mph - N/A   Clear
8:53 PM 35.1 °F 27.9 °F 12.0 °F 39% 29.98 in 10.0 mi ENE 9.2 mph - N/A   Clear
9:53 PM 36.0 °F 28.5 °F 12.9 °F 39% 29.99 in 10.0 mi ENE 10.4 mph - N/A   Clear
10:53 PM 30.9 °F 22.8 °F 12.9 °F 47% 30.01 in 10.0 mi NE 9.2 mph - N/A   Clear
11:53 PM 32.0 °F 24.2 °F 12.9 °F 45% 30.02 in 10.0 mi ENE 9.2 mph - N/A   Clear